CAPE
1903 1912 2306 2261 2111 1914 1876 1739 1662 1558 1411 1489 1485 1264 1308 1258 1213 1102 1115 795 635 1027 1590 1384 1278 1393 987 504 351 555 917 711 722 552 351 229 163 103 39 0 0 0 2
1780 1968 2123 2109 2238 2101 1945 1795 1737 1631 1600 1530 1434 1454 1308 1168 1127 1120 951 678 458 379 443 1154 1566 1305 1009 546 434 352 755 542 634 515 327 179 101 43 1 0 0 0 6
2363 1985 2175 2096 2046 2134 2002 1870 1643 1679 1801 1696 1571 1394 1229 1133 1065 1057 823 614 376 373 112 396 1176 1245 1054 848 423 140 596 466 514 442 300 176 72 16 0 0 0 0 3
2167 2445 2037 2014 1878 1947 1980 1890 1651 1602 1619 1596 1529 1389 1257 1137 1114 1042 851 659 381 259 92 36 631 723 672 717 624 450 147 348 435 388 260 171 81 22 0 0 0 4 5
1890 1922 2151 2249 2020 1845 1826 1724 1526 1535 1652 1518 1461 1326 1298 1224 1167 1085 877 614 451 336 226 58 3 263 180 195 507 427 70 408 418 406 239 148 74 26 2 0 5 10 16
1967 1750 1569 1866 2068 1962 1693 1734 1575 1550 1487 1583 1434 1286 1117 1104 1115 1025 821 631 464 295 110 10 0 0 112 157 360 169 48 475 441 312 202 140 40 24 24 11 12 15 8
1488 1875 1862 1642 1573 1649 1774 1552 1672 1773 1654 1627 1449 1324 1128 955 1004 857 728 675 536 233 140 0 0 0 48 154 59 64 71 585 572 320 209 94 20 22 20 22 24 0 27
441 1273 1711 1712 1770 1539 1631 1569 1227 1416 1545 1652 1363 1184 987 1021 868 794 689 633 470 254 37 0 0 0 1 18 28 25 29 38 634 452 232 69 15 14 15 19 21 23 33
180 528 1125 1560 1764 1669 1332 1221 1229 818 789 1217 1104 759 644 503 367 435 582 454 657 145 14 0 0 1 6 1 40 18 8 6 131 338 221 65 19 19 15 23 25 33 35
0 324 573 919 1404 1596 1291 1020 908 258 25 241 511 681 381 116 93 58 220 562 408 385 43 0 0 0 8 20 10 17 14 0 61 144 170 88 45 42 29 24 27 32 41
0 0 47 540 766 1206 1094 1199 842 410 233 422 14 465 615 344 307 134 55 189 339 232 79 0 0 2 2 15 50 52 99 114 96 104 90 67 78 43 23 30 32 35 46
0 0 0 12 636 701 840 911 1017 614 497 462 473 576 511 462 520 450 295 280 159 151 173 65 0 3 0 1 40 69 21 55 46 65 95 69 25 39 29 25 37 44 50
0 0 0 0 239 705 590 580 760 755 678 666 753 559 490 457 450 326 514 395 238 54 36 83 0 0 0 2 56 65 98 57 74 75 96 63 20 9 16 16 29 51 49
0 0 0 1 40 515 722 684 712 548 584 680 704 646 597 508 422 509 564 432 236 149 88 157 2 0 2 7 2 33 70 73 51 69 79 58 19 11 7 9 7 27 37
43 6 0 0 0 0 84 474 546 544 682 582 602 655 507 517 525 565 547 431 211 74 20 4 0 46 9 12 12 1 18 55 59 50 59 50 14 2 0 5 2 6 19
50 52 10 0 46 242 37 470 620 720 791 578 223 164 396 569 553 545 456 374 312 141 41 10 17 9 34 8 12 20 16 30 41 64 25 39 14 11 10 0 5 3 7
4 222 158 424 427 553 408 477 710 887 887 558 329 106 56 252 387 384 357 314 213 187 98 63 73 13 18 9 2 15 22 8 23 45 78 37 18 11 7 6 0 9 10
0 1 129 261 556 464 377 544 637 834 706 553 422 225 147 232 200 336 280 228 167 159 135 47 44 33 13 95 12 12 6 11 17 24 28 22 15 8 4 1 0 22 14
0 0 3 9 97 323 457 755 801 741 692 647 433 301 402 172 239 191 167 110 105 134 102 56 31 29 15 13 20 18 3 5 25 33 9 7 10 1 8 5 30 48 32
0 1 40 25 64 54 136 257 475 565 576 619 300 160 48 45 79 165 117 109 102 116 132 27 37 58 41 25 43 28 4 9 4 6 5 19 5 7 5 1 4 63 68
0 5 20 53 76 74 5 58 203 307 366 333 173 54 34 34 119 94 88 99 77 47 60 54 86 37 101 35 12 16 13 17 3 5 0 19 9 16 6 0 9 5 67
1 8 3 2 23 65 40 14 0 100 283 247 28 38 167 111 110 97 63 81 62 87 88 65 37 19 2 23 15 30 43 13 6 15 17 5 5 0 4 1 33 69 82
2 3 4 1 0 16 17 0 33 85 130 149 42 45 17 119 75 72 87 71 68 30 49 58 18 58 5 13 28 16 6 1 11 19 32 1 2 0 3 11 0 69 86
0 3 0 0 0 0 2 0 0 102 74 97 66 35 29 30 51 65 53 83 31 4 18 5 3 18 15 58 17 20 5 7 17 0 18 0 0 0 2 1 25 36 82
0 0 0 0 0 0 0 0 2 1 13 80 104 48 21 50 69 71 24 13 6 7 3 10 9 1 3 6 4 8 0 3 0 0 8 0 0 0 2 0 5 3 1
0 0 0 0 0 0 0 0 0 0 13 63 39 11 22 4 1 33 17 0 0 17 15 9 0 1 9 9 3 0 0 0 6 0 1 0 0 2 2 0 0 1 8
CIN
-63 -55 -25 -34 -39 -64 -56 -78 -81 -79 -76 -51 -29 -57 -15 -21 -17 -19 -11 -8 -31 -74 -21 -10 -5 -4 -7 -23 -9 -0 -0 -0 0 -1 0 -0 -10 -15 -51 0 0 0 -0
-69 -38 -23 -16 -26 -32 -68 -63 -80 -79 -74 -57 -47 -20 -17 -10 -13 -6 -2 -12 -19 -25 -111 -27 -1 -2 -0 -6 -1 -5 0 -3 -2 -1 0 -0 -10 -40 -11 0 0 0 -1
-5 -22 -11 -6 -33 -28 -49 -49 -55 -52 -38 -38 -39 -26 -17 -11 -12 -8 -8 -1 -13 -13 -59 -101 -9 -3 -2 0 -0 -14 -0 -1 0 -1 0 0 -14 -73 0 0 0 0 -1
-10 -2 -8 -3 -3 -34 -18 -37 -39 -42 -28 -27 -45 -44 -23 -11 -12 -9 -8 -7 -4 -18 -30 -51 -24 -16 -17 -6 -0 0 -124 -11 -1 -1 0 0 -2 -71 0 0 0 -2 -1
-14 -12 -7 -9 -12 -0 -13 -11 -67 -42 -26 -31 -40 -34 -27 -12 -9 -5 -4 -1 -5 -10 -10 -83 -4 -26 -35 -32 -0 0 -9 -0 -3 -1 -1 0 -2 -79 -7 0 -2 -3 -1
-31 -19 -19 -12 -15 -20 -3 -7 -39 -55 -49 -33 -23 -13 -15 -19 -17 -14 -10 -13 -12 -21 -21 -20 0 0 -38 -26 -10 -12 -68 0 -1 -1 -6 0 -2 -5 -32 -9 -4 -5 -0
-28 -20 -7 -6 -68 -33 -22 -0 -19 -19 -12 -4 -2 -1 -11 -29 -18 -33 -25 -18 -25 -51 -21 -0 0 0 -25 -14 -24 -21 -20 -7 -0 -2 -2 -1 -11 -13 -35 -25 -7 0 -2
-11 -8 -20 -6 -16 -31 -14 -10 -22 -18 -2 -4 -2 -1 0 -7 -33 -52 -47 -30 -26 -28 -55 0 0 0 -0 -7 -2 -1 -39 -15 -2 -2 0 -3 -14 -13 -15 -21 -10 -1 -1
-112 -20 -9 -9 -4 -8 -20 -30 -1 -7 0 -2 -11 -19 -5 -44 -118 -83 -75 -73 -10 -73 -63 0 0 0 -0 0 -5 -0 -0 -1 -4 0 0 -7 -10 -11 -7 -15 -13 -7 -1
0 -83 -26 -5 -15 -6 -21 -30 -19 -24 -22 -6 -1 -4 -12 -103 -187 -208 -134 -54 -60 -40 -65 0 0 0 -4 -3 -6 -4 -2 0 -0 -1 -0 -3 -2 -2 -0 -21 -11 -6 -1
0 0 -19 -2 -4 -16 -24 -19 -27 -24 -84 -47 -223 -7 -9 -58 -84 -172 -232 -118 -38 -70 -86 0 0 0 0 -1 0 -0 0 0 -1 -2 -12 -10 -1 -0 -1 -15 -8 -6 -2
0 0 0 -85 -16 -8 -20 -32 -15 -12 -50 -74 -114 -28 -119 -71 -55 -95 -132 -126 -90 -106 -47 -23 0 0 0 0 -0 -0 -0 -2 -4 -5 -8 -14 -9 -1 -4 -9 -5 -2 -3
0 0 0 0 -82 -6 -9 -14 -33 -40 -40 -10 -21 -53 -70 -125 -88 -74 -73 -87 -68 -130 -120 -22 0 0 -0 -1 -3 -6 -0 -10 -6 -5 -5 -17 -20 -17 -14 -11 -7 -1 -1
0 0 0 -0 -127 -50 -52 -9 -6 -22 -38 -24 -24 -47 -83 -95 -62 -68 -79 -48 -75 -82 -72 -12 0 0 -2 0 -17 -34 -7 -4 -10 -2 -4 -12 -16 -21 -29 -18 -31 -17 -7
-58 -14 0 0 0 0 -180 -12 -5 -34 -29 -15 -37 -23 -51 -113 -60 -47 -46 -31 -92 -93 -131 -25 0 -42 -4 -0 -0 -33 -10 -1 -5 -4 -1 -3 -1 -6 -0 -27 0 -36 -20
-41 -48 -42 0 -74 -60 -64 -25 -9 -28 -12 -53 -20 -103 -12 -26 -33 -67 -39 -19 -46 -28 -54 -50 -30 -39 -12 -5 -10 -0 -0 -16 -9 -13 -15 -0 -4 -0 -1 0 -4 -1 -31
-18 -2 -31 -20 -10 -20 -34 -20 -33 -8 -8 -8 -11 -24 -77 -53 -45 -48 -95 -31 -26 -3 -9 -30 -11 -23 -20 -5 -14 -8 -1 -2 0 0 -0 -6 -1 -0 -1 0 0 -9 -9
0 -2 -30 -42 -34 -19 -14 -17 -73 -8 -16 -0 -2 -0 -18 -49 -23 -58 -70 -55 -41 -19 -1 -7 -8 -23 -14 -7 -30 -37 -18 -10 -28 -10 -4 -8 -31 -22 -0 -0 0 -30 -10
0 0 -7 -55 -55 -35 -8 -8 0 -0 -1 -7 -8 -15 -35 -91 -36 -52 -46 -12 -59 -14 -3 -0 -8 -5 -11 -5 -6 -10 -23 -18 -10 -4 -10 0 -7 -0 -0 -1 -10 -7 -20
0 -5 -4 -37 -34 -34 0 0 0 0 -0 0 -22 -29 -25 -127 -79 -8 -5 -18 -33 -7 0 -1 -1 -8 -7 -11 0 -2 -12 -1 -25 -11 0 -1 0 0 0 0 0 -2 -1
-0 -0 -1 0 0 -0 -0 -1 -1 -0 -2 0 -2 -47 -69 -14 -47 -5 -2 -7 -9 -21 -2 -4 -5 0 -12 -8 -1 -19 -3 -2 -6 -6 -11 -2 -0 0 0 0 0 0 0
0 0 0 -1 -1 -1 -2 -4 -0 -0 0 0 -31 -12 -1 -14 -4 -0 -2 0 -1 -5 -7 -3 -0 -19 -1 -76 -11 -4 -21 -2 -0 -0 -1 -2 -10 0 0 0 0 0 0
0 0 0 0 0 -2 -0 -10 -17 0 0 0 -3 -4 -1 -0 0 0 -1 -2 -5 -11 -5 0 -3 -16 -2 -15 -0 0 -5 -0 -0 0 0 -0 0 0 0 0 0 -0 0
0 -1 0 0 0 0 0 0 0 0 -0 0 -0 -0 0 0 -2 0 -0 -1 -7 -1 -7 0 -5 -8 -3 -2 -17 -7 -0 -0 0 0 0 0 0 0 0 0 0 -0 0
0 0 0 0 0 0 0 0 0 0 0 0 0 -0 -5 -0 0 0 -3 -3 0 0 0 -26 -5 -2 -3 -1 -0 0 -0 -0 0 -1 0 0 0 0 -0 0 0 0 0
0 0 0 0 0 0 0 0 0 0 -1 0 -2 -7 -4 -1 0 0 0 0 0 -1 -3 0 -1 -8 -0 -0 -3 0 0 0 -0 -0 -1 -0 0 0 -0 0 0 0 0
Wind_Speed
33 34 33 34 34 36 36 37 39 38 33 30 25 22 24 26 26 27 25 28 20 30 28 29 34 38 38 36 23 17 20 24 25 24 23 20 20 18 nan nan nan nan nan
36 36 34 35 36 35 36 38 39 39 37 33 29 27 26 25 26 30 27 28 27 28 27 24 32 38 38 38 18 19 17 21 27 24 24 22 22 nan nan nan nan nan nan
41 34 36 38 35 35 36 38 39 41 40 38 34 32 32 30 30 31 30 30 28 28 31 22 30 36 32 33 18 19 17 22 28 26 24 25 nan nan nan nan nan nan nan
39 43 41 38 39 37 38 38 39 40 38 42 41 36 35 34 33 34 33 31 31 31 nan nan 27 35 32 33 27 18 23 28 27 26 24 26 nan nan nan nan nan nan nan
37 42 40 38 39 41 41 40 43 44 44 43 44 44 41 38 37 39 37 37 33 33 35 nan nan 29 35 26 27 22 nan 27 22 25 26 25 nan nan nan nan nan nan nan
39 38 39 38 39 39 41 43 43 48 47 45 47 46 44 44 40 39 41 40 37 35 36 nan nan nan 35 35 30 34 nan 10 21 24 28 24 nan nan nan nan nan nan nan
37 32 33 35 40 38 38 42 45 51 53 48 51 48 47 47 39 41 43 42 40 38 37 nan nan nan nan 33 nan nan nan 18 20 21 27 nan nan nan nan nan nan nan nan
36 32 34 36 38 40 41 45 48 59 60 56 54 50 44 42 41 46 48 44 41 39 nan nan nan nan nan nan nan nan nan nan 25 22 26 nan nan nan nan nan nan nan nan
36 36 34 41 41 46 47 54 59 67 82 74 55 53 45 39 46 47 45 43 39 39 nan nan nan nan nan nan nan nan nan nan 15 26 25 nan nan nan nan nan nan nan nan
nan 39 39 38 48 51 55 58 63 57 nan 45 58 51 45 50 nan nan 51 42 43 41 nan nan nan nan nan nan nan nan nan nan nan 31 27 nan nan nan nan nan nan nan nan
nan nan nan 41 49 59 58 63 68 68 62 60 nan 35 42 48 45 55 nan 41 43 44 nan nan nan nan nan nan nan nan nan 37 nan 38 nan nan nan nan nan nan nan nan nan
nan nan nan nan 53 55 57 58 67 64 67 65 65 54 47 43 40 49 51 42 37 44 43 nan nan nan nan nan nan nan nan nan nan nan nan nan nan nan nan nan nan nan nan
nan nan nan nan 49 45 46 58 62 55 58 60 61 47 42 44 51 56 51 44 40 nan nan nan nan nan nan nan nan nan nan nan nan nan nan nan nan nan nan nan nan nan nan
nan nan nan nan nan 53 53 60 52 39 47 49 52 46 47 50 55 52 49 46 42 42 nan 38 nan nan nan nan nan nan nan nan nan nan nan nan nan nan nan nan nan nan nan
nan nan nan nan nan nan nan 21 21 30 38 39 38 43 46 42 41 44 50 48 44 nan nan nan nan nan nan nan nan nan nan nan nan nan nan nan nan nan nan nan nan nan nan
nan nan nan nan nan 28 nan 22 20 32 37 39 39 35 35 38 32 41 48 46 49 46 nan nan nan nan nan nan nan nan nan nan nan nan nan nan nan nan nan nan nan nan nan
nan 31 27 22 16 18 23 17 23 30 36 38 35 34 nan 25 31 38 36 45 50 42 nan nan nan nan nan nan nan nan nan nan nan nan nan nan nan nan nan nan nan nan nan
nan nan 29 22 23 24 21 24 26 27 30 30 32 30 29 35 30 40 41 40 41 37 33 nan nan nan nan nan nan nan nan nan nan nan nan nan nan nan nan nan nan nan nan
nan nan nan nan nan 34 24 27 21 21 24 23 26 30 32 27 45 39 36 33 42 37 30 nan nan nan nan nan nan nan nan nan nan nan nan nan nan nan nan nan nan nan nan
nan nan nan nan nan nan 51 50 24 24 31 32 32 32 nan nan nan 34 40 38 40 39 30 nan nan nan nan nan nan nan nan nan nan nan nan nan nan nan nan nan nan nan nan
nan nan nan nan nan nan nan nan 34 31 33 34 35 nan nan nan 46 nan nan nan nan nan nan nan nan nan 33 nan nan nan nan nan nan nan nan nan nan nan nan nan nan nan nan
nan nan nan nan nan nan nan nan nan 23 28 31 nan nan 36 35 41 nan nan nan nan nan nan nan nan nan nan nan nan nan nan nan nan nan nan nan nan nan nan nan nan nan nan
nan nan nan nan nan nan nan nan nan nan 41 37 nan nan nan 38 nan nan nan nan nan nan nan nan nan nan nan nan nan nan nan nan nan nan nan nan nan nan nan nan nan nan nan
nan nan nan nan nan nan nan nan nan 56 nan nan nan nan nan nan nan nan nan nan nan nan nan nan nan nan nan nan nan nan nan nan nan nan nan nan nan nan nan nan nan nan nan
nan nan nan nan nan nan nan nan nan nan nan nan 52 nan nan nan nan nan nan nan nan nan nan nan nan nan nan nan nan nan nan nan nan nan nan nan nan nan nan nan nan nan nan
nan nan nan nan nan nan nan nan nan nan nan nan nan nan nan nan nan nan nan nan nan nan nan nan nan nan nan nan nan nan nan nan nan nan nan nan nan nan nan nan nan nan nan
Wind_Direction
281 278 281 280 281 282 286 286 288 292 293 292 291 286 284 283 284 275 277 282 297 306 312 326 330 327 319 314 263 258 270 270 267 268 266 267 275 277 nan nan nan nan nan
276 277 278 279 280 280 281 284 284 286 285 284 283 281 281 277 277 278 277 279 291 296 302 316 322 326 323 321 266 264 270 265 267 266 268 265 270 nan nan nan nan nan nan
276 285 279 276 279 277 277 279 278 278 280 279 281 275 274 275 279 279 276 280 283 286 292 301 313 322 318 319 283 263 260 265 263 262 265 261 nan nan nan nan nan nan nan
267 274 272 271 273 274 273 273 272 269 274 274 272 274 272 272 275 282 283 283 282 283 nan nan 299 316 317 313 311 272 227 252 261 262 262 260 nan nan nan nan nan nan nan
265 270 270 271 272 270 272 271 266 271 270 272 271 270 272 271 275 278 285 286 287 282 279 nan nan 308 311 297 301 281 nan 266 257 263 264 259 nan nan nan nan nan nan nan
274 272 271 277 272 271 268 267 274 268 268 270 266 266 267 268 273 273 283 285 286 282 276 nan nan nan 305 302 294 300 nan 253 263 263 261 260 nan nan nan nan nan nan nan
273 277 278 277 279 277 278 272 265 268 261 263 260 255 255 257 267 271 276 279 279 279 279 nan nan nan nan 304 nan nan nan 297 253 252 262 nan nan nan nan nan nan nan nan
264 272 275 270 273 275 275 273 271 265 262 266 262 258 260 256 262 269 270 274 282 275 nan nan nan nan nan nan nan nan nan nan 254 246 255 nan nan nan nan nan nan nan nan
243 257 274 275 271 270 270 267 264 267 264 246 251 254 252 260 265 264 269 277 279 274 nan nan nan nan nan nan nan nan nan nan 200 254 255 nan nan nan nan nan nan nan nan
nan 249 248 275 277 270 267 270 269 261 nan 272 249 240 246 258 nan nan 263 275 282 274 nan nan nan nan nan nan nan nan nan nan nan 255 252 nan nan nan nan nan nan nan nan
nan nan nan 258 278 275 273 270 270 270 272 271 nan 262 255 250 255 264 nan 275 272 270 nan nan nan nan nan nan nan nan nan 227 nan 229 nan nan nan nan nan nan nan nan nan
nan nan nan nan 276 280 278 275 268 269 266 266 266 270 263 266 259 260 266 264 270 265 264 nan nan nan nan nan nan nan nan nan nan nan nan nan nan nan nan nan nan nan nan
nan nan nan nan 275 278 275 271 263 260 263 261 266 267 259 249 254 270 256 259 257 nan nan nan nan nan nan nan nan nan nan nan nan nan nan nan nan nan nan nan nan nan nan
nan nan nan nan nan 270 276 274 263 252 259 260 258 258 254 256 264 254 258 258 256 255 nan 259 nan nan nan nan nan nan nan nan nan nan nan nan nan nan nan nan nan nan nan
nan nan nan nan nan nan nan 272 258 263 263 267 259 248 248 239 242 252 260 256 262 nan nan nan nan nan nan nan nan nan nan nan nan nan nan nan nan nan nan nan nan nan nan
nan nan nan nan nan 273 nan 270 270 267 273 267 262 253 220 226 248 260 267 262 260 251 nan nan nan nan nan nan nan nan nan nan nan nan nan nan nan nan nan nan nan nan nan
nan 264 259 291 280 257 253 253 267 272 273 270 268 245 nan 247 250 259 262 255 250 251 nan nan nan nan nan nan nan nan nan nan nan nan nan nan nan nan nan nan nan nan nan
nan nan 254 243 258 246 239 259 266 266 272 280 282 267 260 258 268 254 250 253 245 250 244 nan nan nan nan nan nan nan nan nan nan nan nan nan nan nan nan nan nan nan nan
nan nan nan nan nan 238 230 257 253 248 259 268 263 264 258 241 248 247 236 240 250 252 249 nan nan nan nan nan nan nan nan nan nan nan nan nan nan nan nan nan nan nan nan
nan nan nan nan nan nan 222 216 231 249 251 248 256 255 nan nan nan 259 255 245 241 253 255 nan nan nan nan nan nan nan nan nan nan nan nan nan nan nan nan nan nan nan nan
nan nan nan nan nan nan nan nan 226 242 252 244 247 nan nan nan 245 nan nan nan nan nan nan nan nan nan 249 nan nan nan nan nan nan nan nan nan nan nan nan nan nan nan nan
nan nan nan nan nan nan nan nan nan 261 247 239 nan nan 240 246 230 nan nan nan nan nan nan nan nan nan nan nan nan nan nan nan nan nan nan nan nan nan nan nan nan nan nan
nan nan nan nan nan nan nan nan nan nan 231 236 nan nan nan 231 nan nan nan nan nan nan nan nan nan nan nan nan nan nan nan nan nan nan nan nan nan nan nan nan nan nan nan
nan nan nan nan nan nan nan nan nan 227 nan nan nan nan nan nan nan nan nan nan nan nan nan nan nan nan nan nan nan nan nan nan nan nan nan nan nan nan nan nan nan nan nan
nan nan nan nan nan nan nan nan nan nan nan nan 224 nan nan nan nan nan nan nan nan nan nan nan nan nan nan nan nan nan nan nan nan nan nan nan nan nan nan nan nan nan nan
nan nan nan nan nan nan nan nan nan nan nan nan nan nan nan nan nan nan nan nan nan nan nan nan nan nan nan nan nan nan nan nan nan nan nan nan nan nan nan nan nan nan nan